Claes Maersk — OZDT2 — position and weather

sailwx.info

Track history (hours):
 
Tides and Currents Weather Stations Pressure Air Temp Water Temp Dewpoint Dewpoint Depression Visibility Wind Speed Wind Dir Waves Ship Positions

Claes Maersk

Last reported at 2015-Jul-02 04:32 UTC. Time now 2015-Jul-02 05:19 UTC.
Position S 20°08' E 057°30'.

Length 190 m; draft 8.4 m.

Type: Cargo ship. MMSI: 219572000.

Date/timePositionNaut miles runAvg speedWind from/ knotsBaromVisibWave heightAir tempDewpointWater temp
2015-Jul-02 04:32S 20°08' E 057°30'0 0.0
2015-Jul-02 03:32S 20°08' E 057°30'0 0.0
2015-Jul-02 02:32S 20°08' E 057°30'0 0.0
2015-Jul-02 01:32S 20°08' E 057°30'0 0.0
2015-Jul-02 00:33S 20°08' E 057°30'0 0.0
2015-Jul-01 23:33S 20°08' E 057°30'0 0.0
2015-Jul-01 22:33S 20°08' E 057°30'0 0.0
2015-Jul-01 21:33S 20°08' E 057°30'0 0.0
2015-Jul-01 20:33S 20°08' E 057°30'1 1.3
2015-Jul-01 19:33S 20°08' E 057°28'3 2.7
2015-Jul-01 18:33S 20°07' E 057°26'2 1.8
2015-Jul-01 17:33S 20°06' E 057°24'1 0.7
2015-Jul-01 16:33S 20°06' E 057°25'2 1.6
2015-Jul-01 15:33S 20°05' E 057°24'4 3.9
2015-Jul-01 14:33S 20°02' E 057°20'1 0.7
2015-Jul-01 13:28S 20°02' E 057°20'1 1.1
2015-Jul-01 12:33S 20°03' E 057°21'4 4.4
2015-Jul-01 11:33S 20°07' E 057°21'  
Track history (hours):
 
Tides and Currents Weather Stations Pressure Air Temp Water Temp Dewpoint Dewpoint Depression Visibility Wind Speed Wind Dir Waves Ship Positions

Claes Maersk

Last reported at 2015-Jul-02 04:32 UTC. Time now 2015-Jul-02 05:19 UTC.
Position S 20°08' E 057°30'.

Length 190 m; draft 8.4 m.

Type: Cargo ship. MMSI: 219572000.

Date/timePositionNaut miles runAvg speedWind from/ knotsBaromVisibWave heightAir tempDewpointWater temp
2015-Jul-02 04:32S 20°08' E 057°30'0 0.0
2015-Jul-02 03:32S 20°08' E 057°30'0 0.0
2015-Jul-02 02:32S 20°08' E 057°30'0 0.0
2015-Jul-02 01:32S 20°08' E 057°30'0 0.0
2015-Jul-02 00:33S 20°08' E 057°30'0 0.0
2015-Jul-01 23:33S 20°08' E 057°30'0 0.0
2015-Jul-01 22:33S 20°08' E 057°30'0 0.0
2015-Jul-01 21:33S 20°08' E 057°30'0 0.0
2015-Jul-01 20:33S 20°08' E 057°30'1 1.3
2015-Jul-01 19:33S 20°08' E 057°28'3 2.7
2015-Jul-01 18:33S 20°07' E 057°26'2 1.8
2015-Jul-01 17:33S 20°06' E 057°24'1 0.7
2015-Jul-01 16:33S 20°06' E 057°25'2 1.6
2015-Jul-01 15:33S 20°05' E 057°24'4 3.9
2015-Jul-01 14:33S 20°02' E 057°20'1 0.7
2015-Jul-01 13:28S 20°02' E 057°20'1 1.1
2015-Jul-01 12:33S 20°03' E 057°21'4 4.4
2015-Jul-01 11:33S 20°07' E 057°21'  

Dump ship's entire track history